Tracking 27419 objects as of 10-Jun-2023
HD Live streaming from Space Station
objects crossing your sky now

SL-8 DEB

Track SL-8 DEB now!
10-day predictions


NORAD ID: 7560
Int'l Code: 1972-062D
Perigee: 831.7 km
Apogee: 925.4 km
Inclination: 83.0 °
Period: 102.4 minutes
Semi major axis: 7249 km
RCS: 0.0247 m2 (small)
Launch date: August 16, 1972
Source: Commonwealth of Independent States (former USSR) (CIS)
Launch site: PLESETSK MISSILE AND SPACE COMPLEX (PKMTR)

Note: This is SATELLITE DEBRIS
Your satellite tracking list
Your tracking list is empty




NASA's NSSDC Master Catalog

Two Line Element Set (TLE):
1 07560U 72062D   23160.65406894  .00000402  00000-0  22954-3 0  9990
2 07560  82.9749 301.0521 0064617 320.0119  39.6305 14.06486509484398
Source of the keplerian elements: AFSPC